Daytona Beach, FL

2:49 PM EST on November 19, 2017 (GMT -0500)
Daytona Beach International

Weather History for KDAB - November, 2017

Change the Weather History Date:

Wednesday, November 15, 2017

  Actual Average Record
Temperature  
Mean Temperature 68 °F 67 °F  
Max Temperature 73 °F 76 °F 87 °F (1957)
Min Temperature 62 °F 57 °F 35 °F (1969)
Degree Days  
Heating Degree Days 0 2  
Month to date heating degree days 0 21  
Since 1 July heating degree days 22 29  
Cooling Degree Days 3 4  
Month to date cooling degree days 105 70  
Year to date cooling degree days 3376 2866  
Growing Degree Days 18 (Base 50)    
Moisture  
Dew Point 61 °F    
Average Humidity 83    
Maximum Humidity 93    
Minimum Humidity 73    
Precipitation  
Precipitation 0.00 in 0.09 in 5.64 in (1941)
Month to date precipitation 0.17 1.44  
Year to date precipitation 47.31 45.74  
Sea Level Pressure  
Sea Level Pressure 30.02 in    
Wind  
Wind Speed 13 mph (North)    
Max Wind Speed 22 mph    
Max Gust Speed 27 mph    
Visibility 9 miles    
Events      
T = Trace of Precipitation, MM = Missing Value Source: NWS Daily Summary

Daily Weather History Graph

Daily Weather History Graph

Search for Another Location

Airport or City:

Trip Planner

Search our weather history database for the weather conditions in past years. The results will help you decide how hot, cold, wet, or windy it might be!

Date:

Astronomy

Nov. 15, 2017 Rise Set
Actual Time 6:48 AM EST 5:29 PM EST
Civil Twilight 6:22 AM EST 5:54 PM EST
Nautical Twilight 5:54 AM EST 6:23 PM EST
Astronomical Twilight 5:26 AM EST 6:51 PM EST
Moon 4:05 AM EST (11/15) 4:08 PM EST (11/15)
Length of Visible Light 11h 31m
Length of Day
10h 41m
Waning Crescent, 7% of the Moon is Illuminated
Nov 15
Waning Crescent
Nov 18
New
Nov 26
First Quarter
Dec 3
Full
Dec 10
Last Quarter

Hourly Weather History & Observations

Time (EST) Temp. Dew Point Humidity Pressure Visibility Wind Dir Wind Speed Gust Speed Precip Events Conditions
12:53 AM 66.0 °F 57.9 °F 75% 30.01 in 10.0 mi North 17.3 mph - N/A   Clear
1:53 AM 66.0 °F 57.9 °F 75% 30.00 in 10.0 mi NNE 15.0 mph - N/A   Clear
2:53 AM 66.0 °F 59.0 °F 78% 29.99 in 10.0 mi NNE 15.0 mph - N/A   Clear
3:53 AM 66.0 °F 59.0 °F 78% 29.98 in 10.0 mi North 15.0 mph - N/A   Partly Cloudy
4:53 AM 66.9 °F 60.1 °F 79% 29.99 in 10.0 mi North 15.0 mph - N/A   Scattered Clouds
5:53 AM 66.9 °F 61.0 °F 81% 30.01 in 10.0 mi North 15.0 mph - N/A   Mostly Cloudy
6:53 AM 68.0 °F 62.1 °F 81% 30.02 in 10.0 mi North 12.7 mph - N/A   Scattered Clouds
7:53 AM 68.0 °F 62.1 °F 81% 30.04 in 10.0 mi North 12.7 mph - N/A   Overcast
8:53 AM 64.0 °F 59.0 °F 84% 30.04 in 10.0 mi NW 10.4 mph - N/A   Scattered Clouds
9:53 AM 69.1 °F 62.1 °F 78% 30.04 in 10.0 mi North 12.7 mph - N/A   Scattered Clouds
10:53 AM 71.1 °F 64.0 °F 78% 30.04 in 9.0 mi North 15.0 mph 24.2 mph N/A   Mostly Cloudy
11:27 AM 72.0 °F 63.0 °F 73% 30.03 in 9.0 mi North 18.4 mph 26.5 mph N/A   Mostly Cloudy
11:53 AM 72.0 °F 63.0 °F 73% 30.02 in 10.0 mi North 13.8 mph 24.2 mph N/A   Mostly Cloudy
12:53 PM 72.0 °F 63.0 °F 73% 30.00 in 9.0 mi North 18.4 mph 26.5 mph N/A   Mostly Cloudy
1:53 PM 72.0 °F 64.0 °F 76% 29.98 in 8.0 mi North 15.0 mph 23.0 mph N/A   Mostly Cloudy
2:53 PM 70.0 °F 64.0 °F 81% 29.99 in 8.0 mi North 12.7 mph 20.7 mph N/A   Mostly Cloudy
3:53 PM 68.0 °F 63.0 °F 84% 29.99 in 8.0 mi North 13.8 mph 21.9 mph N/A   Overcast
4:53 PM 66.9 °F 63.0 °F 87% 30.00 in 8.0 mi North 12.7 mph - N/A   Overcast
5:53 PM 66.0 °F 62.1 °F 87% 30.01 in 8.0 mi North 11.5 mph 20.7 mph N/A   Mostly Cloudy
6:53 PM 64.9 °F 62.1 °F 90% 30.02 in 8.0 mi NNW 8.1 mph - N/A   Overcast
7:53 PM 64.9 °F 61.0 °F 87% 30.04 in 9.0 mi North 11.5 mph - N/A   Overcast
8:53 PM 64.9 °F 61.0 °F 87% 30.05 in 9.0 mi North 9.2 mph - N/A   Overcast
9:53 PM 64.0 °F 60.1 °F 87% 30.04 in 9.0 mi NW 8.1 mph - N/A   Overcast
10:53 PM 64.9 °F 61.0 °F 87% 30.04 in 10.0 mi North 13.8 mph 20.7 mph N/A   Overcast
11:53 PM 66.0 °F 61.0 °F 84% 30.03 in 10.0 mi North 12.7 mph - N/A   Overcast